| time (UTC) | temp C | wind direction | speed KPH | gust KPH | rain 1hr cm | rain 24hr cm | rain mn cm | humidity % | barometer mb |
| 20260906084016 | 31 | 38 | 4.8 | 12.9 | 0.00 | 0.00 | 0.00 | 38 | 1017.5 |
| 20260906083015 | 31 | 40 | 3.2 | 8.0 | 0.00 | 0.00 | 0.00 | 42 | 1017.5 |
| 20260906082016 | 31 | 29 | 3.2 | 9.7 | 0.00 | 0.00 | 0.00 | 43 | 1017.4 |
| 20260906081037 | 31 | 36 | 3.2 | 9.7 | 0.00 | 0.00 | 0.00 | 44 | 1017.5 |
| 20260906080035 | 31 | 28 | 4.8 | 8.0 | 0.00 | 0.00 | 0.00 | 40 | 1017.5 |
| 20260906075017 | 31 | 42 | 1.6 | 8.0 | 0.00 | 0.00 | 0.00 | 39 | 1017.4 |
| 20260906074016 | 30 | 45 | 3.2 | 6.4 | 0.00 | 0.00 | 0.00 | 41 | 1017.4 |
| 20260906073017 | 30 | 22 | 1.6 | 4.8 | 0.00 | 0.00 | 0.00 | 40 | 1017.3 |
| 20260906072036 | 30 | 32 | 3.2 | 6.4 | 0.00 | 0.00 | 0.00 | 40 | 1017.4 |
| 20260906071015 | 28 | 354 | 1.6 | 4.8 | 0.00 | 0.00 | 0.00 | 43 | 1017.2 |
| 20260906070035 | 29 | 355 | 1.6 | 4.8 | 0.00 | 0.00 | 0.00 | 40 | 1017.0 |
| 20260906065015 | 28 | 332 | 0.0 | 4.8 | 0.00 | 0.00 | 0.00 | 43 | 1017.0 |
| 20260906064036 | 27 | 268 | 0.0 | 3.2 | 0.00 | 0.00 | 0.00 | 45 | 1017.0 |
| 20260906063035 | 27 | 268 | 1.6 | 4.8 | 0.00 | 0.00 | 0.00 | 46 | 1016.9 |
| 20260906062015 | 26 | 235 | 0.0 | 3.2 | 0.00 | 0.00 | 0.00 | 47 | 1016.7 |
| 20260906061017 | 25 | 235 | 1.6 | 4.8 | 0.00 | 0.00 | 0.00 | 48 | 1016.6 |
| 20260906060015 | 25 | 236 | 3.2 | 6.4 | 0.00 | 0.00 | 0.00 | 49 | 1016.6 |
| 20260906055016 | 24 | 213 | 4.8 | 8.0 | 0.00 | 0.00 | 0.00 | 50 | 1016.5 |
| 20260906054017 | 23 | 360 | 4.8 | 8.0 | 0.00 | 0.00 | 0.00 | 53 | 1016.5 |
| 20260906053015 | 23 | 356 | 4.8 | 8.0 | 0.00 | 0.00 | 0.00 | 55 | 1016.5 |
| 20260906052017 | 22 | 0 | 4.8 | 16.1 | 0.00 | 0.00 | 0.00 | 57 | 1016.4 |
| 20260906051036 | 21 | 342 | 8.0 | 16.1 | 0.00 | 0.00 | 0.00 | 59 | 1016.4 |
| 20260906050015 | 21 | 219 | 6.4 | 9.7 | 0.00 | 0.00 | 0.00 | 60 | 1016.3 |
| 20260906045037 | 21 | 208 | 6.4 | 12.9 | 0.00 | 0.00 | 0.00 | 60 | 1016.3 |
| 20260906044015 | 21 | 220 | 8.0 | 12.9 | 0.00 | 0.00 | 0.00 | 60 | 1016.2 |
| 20260906043016 | 21 | 214 | 9.7 | 16.1 | 0.00 | 0.00 | 0.00 | 57 | 1016.1 |
| 20260906042035 | 21 | 207 | 9.7 | 16.1 | 0.00 | 0.00 | 0.00 | 58 | 1016.1 |
| 20260906041015 | 21 | 294 | 8.0 | 12.9 | 0.00 | 0.00 | 0.00 | 59 | 1016.0 |
| 20260906040035 | 21 | 203 | 8.0 | 19.3 | 0.00 | 0.00 | 0.00 | 58 | 1015.9 |
| 20260906035015 | 21 | 256 | 9.7 | 17.7 | 0.00 | 0.00 | 0.00 | 58 | 1015.9 |
| 20260906034017 | 21 | 196 | 8.0 | 12.9 | 0.00 | 0.00 | 0.00 | 58 | 1015.8 |
| 20260906033017 | 21 | 204 | 8.0 | 16.1 | 0.00 | 0.00 | 0.00 | 58 | 1015.8 |
| 20260906032018 | 21 | 211 | 11.3 | 16.1 | 0.00 | 0.00 | 0.00 | 58 | 1015.8 |
| 20260906031015 | 21 | 210 | 9.7 | 17.7 | 0.00 | 0.00 | 0.00 | 58 | 1015.8 |
| 20260906030147 | 21 | 203 | 11.3 | 17.7 | 0.00 | 0.00 | 0.00 | 59 | 1015.7 |
| 20260906025017 | 21 | 242 | 9.7 | 17.7 | 0.00 | 0.00 | 0.00 | 59 | 1015.6 |
| 20260906024016 | 21 | 230 | 8.0 | 16.1 | 0.00 | 0.00 | 0.00 | 59 | 1015.5 |
| 20260906023015 | 21 | 201 | 6.4 | 11.3 | 0.00 | 0.00 | 0.00 | 58 | 1015.5 |
| 20260906022017 | 21 | 192 | 8.0 | 14.5 | 0.00 | 0.00 | 0.00 | 58 | 1015.6 |
| 20260906021037 | 21 | 208 | 6.4 | 12.9 | 0.00 | 0.00 | 0.00 | 59 | 1015.6 |
| 20260906020016 | 21 | 177 | 4.8 | 11.3 | 0.00 | 0.00 | 0.00 | 60 | 1015.3 |
| 20260906015037 | 21 | 192 | 6.4 | 14.5 | 0.00 | 0.00 | 0.00 | 61 | 1015.5 |
| 20260906014017 | 21 | 220 | 11.3 | 20.9 | 0.00 | 0.00 | 0.00 | 60 | 1015.5 |
| 20260906013015 | 21 | 232 | 8.0 | 12.9 | 0.00 | 0.00 | 0.00 | 58 | 1015.3 |
| 20260906012015 | 22 | 202 | 9.7 | 14.5 | 0.00 | 0.00 | 0.00 | 56 | 1015.3 |
| 20260906011015 | 22 | 215 | 8.0 | 14.5 | 0.00 | 0.00 | 0.00 | 57 | 1015.4 |
| 20260906010037 | 22 | 217 | 8.0 | 12.9 | 0.00 | 0.00 | 0.00 | 57 | 1015.5 |
| 20260906005017 | 22 | 239 | 6.4 | 14.5 | 0.00 | 0.00 | 0.00 | 57 | 1015.7 |
| 20260906004015 | 22 | 225 | 8.0 | 14.5 | 0.00 | 0.00 | 0.00 | 55 | 1015.6 |
| 20260906003017 | 22 | 199 | 9.7 | 16.1 | 0.00 | 0.00 | 0.00 | 54 | 1015.6 |
| 20260906002015 | 22 | 197 | 11.3 | 16.1 | 0.00 | 0.00 | 0.00 | 54 | 1015.6 |
| 20260906001015 | 23 | 184 | 8.0 | 16.1 | 0.00 | 0.00 | 0.00 | 53 | 1015.6 |
| 20260906000035 | 22 | 188 | 8.0 | 17.7 | 0.00 | 0.00 | 0.00 | 54 | 1015.8 |
| 20260905235015 | 22 | 181 | 9.7 | 25.7 | 0.00 | 0.00 | 0.00 | 55 | 1015.8 |
| 20260905234017 | 22 | 187 | 9.7 | 17.7 | 0.00 | 0.00 | 0.00 | 54 | 1015.9 |
| 20260905233015 | 22 | 191 | 9.7 | 16.1 | 0.00 | 0.00 | 0.00 | 55 | 1016.0 |
| 20260905232016 | 22 | 187 | 9.7 | 17.7 | 0.00 | 0.00 | 0.00 | 54 | 1016.1 |
| 20260905231017 | 23 | 205 | 8.0 | 14.5 | 0.00 | 0.00 | 0.00 | 53 | 1016.1 |
| 20260905230015 | 23 | 191 | 8.0 | 17.7 | 0.00 | 0.00 | 0.00 | 52 | 1016.2 |
| 20260905225015 | 23 | 185 | 8.0 | 19.3 | 0.00 | 0.00 | 0.00 | 52 | 1016.2 |
| 20260905224017 | 23 | 191 | 8.0 | 14.5 | 0.00 | 0.00 | 0.00 | 52 | 1016.2 |
| 20260905223015 | 23 | 184 | 8.0 | 16.1 | 0.00 | 0.00 | 0.00 | 51 | 1016.3 |
| 20260905222037 | 23 | 184 | 8.0 | 17.7 | 0.00 | 0.00 | 0.00 | 51 | 1016.3 |
| 20260905221015 | 23 | 177 | 6.4 | 19.3 | 0.00 | 0.00 | 0.00 | 51 | 1016.4 |
| 20260905220015 | 23 | 175 | 6.4 | 14.5 | 0.00 | 0.00 | 0.00 | 52 | 1016.3 |
| 20260905215057 | 23 | 177 | 8.0 | 17.7 | 0.00 | 0.00 | 0.00 | 54 | 1016.3 |
| 20260905214015 | 22 | 203 | 8.0 | 14.5 | 0.00 | 0.00 | 0.00 | 55 | 1016.4 |
| 20260905213015 | 22 | 190 | 8.0 | 16.1 | 0.00 | 0.00 | 0.00 | 54 | 1016.5 |
| 20260905212017 | 23 | 194 | 8.0 | 14.5 | 0.00 | 0.00 | 0.00 | 53 | 1016.5 |
| 20260905211015 | 23 | 198 | 6.4 | 14.5 | 0.00 | 0.00 | 0.00 | 52 | 1016.6 |
| 20260905210037 | 24 | 198 | 6.4 | 9.7 | 0.00 | 0.00 | 0.00 | 51 | 1016.6 |
| 20260905205018 | 24 | 181 | 4.8 | 9.7 | 0.00 | 0.00 | 0.00 | 51 | 1016.6 |
| 20260905204018 | 23 | 183 | 6.4 | 12.9 | 0.00 | 0.00 | 0.00 | 51 | 1016.5 |
| 20260905203016 | 23 | 182 | 8.0 | 16.1 | 0.00 | 0.00 | 0.00 | 51 | 1016.4 |
| 20260905202018 | 25 | 209 | 8.0 | 12.9 | 0.00 | 0.00 | 0.00 | 49 | 1016.4 |
| 20260905201016 | 25 | 191 | 6.4 | 11.3 | 0.00 | 0.00 | 0.00 | 49 | 1016.4 |
| 20260905200016 | 25 | 188 | 6.4 | 11.3 | 0.00 | 0.00 | 0.00 | 49 | 1016.5 |
| 20260905195016 | 25 | 189 | 6.4 | 14.5 | 0.00 | 0.00 | 0.00 | 48 | 1016.6 |
| 20260905194018 | 25 | 186 | 6.4 | 11.3 | 0.00 | 0.00 | 0.00 | 48 | 1016.5 |
| 20260905193016 | 26 | 173 | 4.8 | 9.7 | 0.00 | 0.00 | 0.00 | 47 | 1016.6 |
| 20260905192018 | 26 | 190 | 4.8 | 8.0 | 0.00 | 0.00 | 0.00 | 46 | 1016.6 |
| 20260905191036 | 26 | 188 | 1.6 | 8.0 | 0.00 | 0.00 | 0.00 | 46 | 1016.6 |
| 20260905190016 | 26 | 0 | 1.6 | 6.4 | 0.00 | 0.00 | 0.00 | 46 | 1016.6 |
| 20260905185016 | 27 | 0 | 4.8 | 8.0 | 0.00 | 0.00 | 0.00 | 45 | 1016.4 |
| 20260905184016 | 27 | 0 | 1.6 | 8.0 | 0.00 | 0.00 | 0.00 | 45 | 1016.3 |
| 20260905183016 | 27 | 0 | 3.2 | 12.9 | 0.00 | 0.00 | 0.00 | 44 | 1016.2 |
| 20260905182036 | 27 | 0 | 4.8 | 14.5 | 0.00 | 0.00 | 0.00 | 44 | 1016.1 |
| 20260905181016 | 27 | 0 | 4.8 | 9.7 | 0.00 | 0.00 | 0.00 | 45 | 1016.0 |
| 20260905180016 | 27 | 0 | 4.8 | 12.9 | 0.00 | 0.00 | 0.00 | 45 | 1015.9 |
| 20260905175016 | 28 | 0 | 6.4 | 9.7 | 0.00 | 0.00 | 0.00 | 45 | 1015.8 |
| 20260905174036 | 29 | 0 | 1.6 | 6.4 | 0.00 | 0.00 | 0.00 | 45 | 1015.6 |
| 20260905173016 | 29 | 0 | 0.0 | 8.0 | 0.00 | 0.00 | 0.00 | 47 | 1015.5 |
| 20260905172016 | 29 | 0 | 3.2 | 8.0 | 0.00 | 0.00 | 0.00 | 47 | 1015.4 |
| 20260905171017 | 29 | 0 | 3.2 | 4.8 | 0.00 | 0.00 | 0.00 | 48 | 1015.3 |
| 20260905170017 | 29 | 0 | 4.8 | 9.7 | 0.00 | 0.00 | 0.00 | 48 | 1015.2 |
| 20260905165018 | 30 | 0 | 6.4 | 16.1 | 0.00 | 0.00 | 0.00 | 48 | 1015.2 |
| 20260905164016 | 30 | 29 | 6.4 | 12.9 | 0.00 | 0.00 | 0.00 | 46 | 1015.2 |
| 20260905163016 | 31 | 14 | 4.8 | 11.3 | 0.00 | 0.00 | 0.00 | 45 | 1015.1 |
| 20260905162016 | 31 | 29 | 4.8 | 14.5 | 0.00 | 0.00 | 0.00 | 41 | 1015.2 |
| 20260905161016 | 31 | 34 | 6.4 | 17.7 | 0.00 | 0.00 | 0.00 | 41 | 1015.2 |
| 20260905160016 | 31 | 17 | 4.8 | 12.9 | 0.00 | 0.00 | 0.00 | 41 | 1015.2 |
| 20260905155016 | 31 | 34 | 6.4 | 16.1 | 0.00 | 0.00 | 0.00 | 42 | 1015.2 |
| 20260905154018 | 31 | 28 | 6.4 | 14.5 | 0.00 | 0.00 | 0.00 | 45 | 1015.2 |
| 20260905153017 | 31 | 27 | 8.0 | 20.9 | 0.00 | 0.00 | 0.00 | 43 | 1015.2 |
| 20260905152017 | 32 | 30 | 8.0 | 17.7 | 0.00 | 0.00 | 0.00 | 42 | 1015.3 |
| 20260905151016 | 32 | 34 | 9.7 | 19.3 | 0.00 | 0.00 | 0.00 | 42 | 1015.3 |
| 20260905150018 | 32 | 42 | 8.0 | 19.3 | 0.00 | 0.00 | 0.00 | 38 | 1015.3 |
| 20260905145017 | 32 | 41 | 9.7 | 20.9 | 0.00 | 0.00 | 0.00 | 38 | 1015.3 |
| 20260905144037 | 32 | 42 | 8.0 | 22.5 | 0.00 | 0.00 | 0.00 | 40 | 1015.3 |
| 20260905143016 | 32 | 36 | 9.7 | 20.9 | 0.00 | 0.00 | 0.00 | 40 | 1015.3 |
| 20260905142015 | 32 | 47 | 8.0 | 17.7 | 0.00 | 0.00 | 0.00 | 39 | 1015.4 |
| 20260905141016 | 32 | 31 | 11.3 | 24.1 | 0.00 | 0.00 | 0.00 | 36 | 1015.4 |
| 20260905140016 | 32 | 33 | 16.1 | 24.1 | 0.00 | 0.00 | 0.00 | 36 | 1015.4 |
| 20260905135016 | 32 | 48 | 9.7 | 19.3 | 0.00 | 0.00 | 0.00 | 36 | 1015.5 |
| 20260905134016 | 32 | 38 | 12.9 | 22.5 | 0.00 | 0.00 | 0.00 | 35 | 1015.5 |
| 20260905133016 | 32 | 31 | 12.9 | 20.9 | 0.00 | 0.00 | 0.00 | 35 | 1015.7 |
| 20260905132134 | 33 | 45 | 9.7 | 17.7 | 0.00 | 0.00 | 0.00 | 34 | 1015.7 |
| 20260905131016 | 32 | 58 | 12.9 | 22.5 | 0.00 | 0.00 | 0.00 | 34 | 1015.8 |
| 20260905130016 | 32 | 51 | 11.3 | 20.9 | 0.00 | 0.00 | 0.00 | 33 | 1015.9 |
| 20260905125036 | 32 | 42 | 11.3 | 19.3 | 0.00 | 0.00 | 0.00 | 32 | 1016.0 |
| 20260905124036 | 32 | 32 | 8.0 | 17.7 | 0.00 | 0.00 | 0.00 | 33 | 1016.2 |
| 20260905123016 | 33 | 71 | 9.7 | 20.9 | 0.00 | 0.00 | 0.00 | 33 | 1016.3 |
| 20260905122018 | 33 | 52 | 9.7 | 19.3 | 0.00 | 0.00 | 0.00 | 33 | 1016.4 |
| 20260905121017 | 33 | 45 | 8.0 | 17.7 | 0.00 | 0.00 | 0.00 | 33 | 1016.7 |
| 20260905120036 | 32 | 26 | 6.4 | 17.7 | 0.00 | 0.00 | 0.00 | 33 | 1016.9 |
| 20260905115016 | 32 | 52 | 12.9 | 20.9 | 0.00 | 0.00 | 0.00 | 32 | 1016.9 |
| 20260905114017 | 32 | 50 | 8.0 | 17.7 | 0.00 | 0.00 | 0.00 | 33 | 1016.9 |
| 20260905113018 | 32 | 77 | 12.9 | 20.9 | 0.00 | 0.00 | 0.00 | 33 | 1016.9 |
| 20260905112016 | 32 | 73 | 9.7 | 17.7 | 0.00 | 0.00 | 0.00 | 34 | 1017.0 |
| 20260905111016 | 32 | 70 | 6.4 | 17.7 | 0.00 | 0.00 | 0.00 | 34 | 1017.0 |
| 20260905110038 | 32 | 69 | 8.0 | 16.1 | 0.00 | 0.00 | 0.00 | 33 | 1017.1 |
| 20260905105038 | 32 | 39 | 3.2 | 8.0 | 0.00 | 0.00 | 0.00 | 34 | 1017.1 |
| 20260905104016 | 32 | 48 | 6.4 | 16.1 | 0.00 | 0.00 | 0.00 | 34 | 1017.3 |
| 20260905103037 | 32 | 52 | 6.4 | 14.5 | 0.00 | 0.00 | 0.00 | 34 | 1017.3 |
| 20260905102016 | 32 | 62 | 6.4 | 17.7 | 0.00 | 0.00 | 0.00 | 35 | 1017.4 |
| 20260905101015 | 31 | 59 | 3.2 | 8.0 | 0.00 | 0.00 | 0.00 | 37 | 1017.5 |
| 20260905100036 | 31 | 6 | 3.2 | 12.9 | 0.00 | 0.00 | 0.00 | 40 | 1017.6 |
| 20260905095017 | 31 | 330 | 4.8 | 8.0 | 0.00 | 0.00 | 0.00 | 40 | 1017.6 |
| 20260905094037 | 31 | 306 | 4.8 | 11.3 | 0.00 | 0.00 | 0.00 | 40 | 1017.6 |
| 20260905093016 | 31 | 348 | 4.8 | 8.0 | 0.00 | 0.00 | 0.00 | 40 | 1017.7 |
| 20260905092037 | 31 | 28 | 3.2 | 14.5 | 0.00 | 0.00 | 0.00 | 41 | 1017.7 |
| 20260905091016 | 30 | 9 | 3.2 | 12.9 | 0.00 | 0.00 | 0.00 | 42 | 1017.8 |
| 20260905090016 | 30 | 329 | 4.8 | 12.9 | 0.00 | 0.00 | 0.00 | 41 | 1017.8 |
| 20260905085016 | 30 | 38 | 3.2 | 8.0 | 0.00 | 0.00 | 0.00 | 41 | 1017.8 |